Location: Heidgraben
(53.7081°N, 9.6576°E)
Time: 19:18:11
(UTC+00:00)

Cosmos-2242 - Pass Details

Date: 05 July 2020
Orbit: 592 x 616 km, 82.5° (Epoch: 14 August)

Event Time Altitude Azimuth Distance (km) Brightness Sun altitude
Rises 20:46:41 0° 345° (NNW) 2,871 8.0 -6.2°
Reaches altitude 10° 20:48:56 10° 340° (NNW) 1,967 7.1 -6.4°
Maximum altitude 20:53:09 51° 265° (W) 774 3.8 -6.8°
Drops below altitude 10° 20:57:22 10° 190° (S) 1,965 5.2 -7.1°
Enters shadow 20:59:06 - 186° (S) 2,657 5.8 -7.3°
